| time (UTC) | temp C | wind direction | speed KPH | gust KPH | rain 1hr cm | rain 24hr cm | rain mn cm | humidity % | barometer mb |
| 20260902100901 | 24 | 267 | 9.7 | 19.3 | 0.00 | 0.00 | 0.00 | 98 | 1012.2 |
| 20260902095401 | 24 | 227 | 8.0 | 19.3 | 0.00 | 0.00 | 0.00 | 98 | 1012.2 |
| 20260902093902 | 23 | 264 | 9.7 | 12.9 | 0.00 | 0.00 | 0.00 | 97 | 1012.2 |
| 20260902092401 | 23 | 258 | 11.3 | 16.1 | 0.00 | 0.00 | 0.00 | 96 | 1012.2 |
| 20260902090900 | 23 | 258 | 11.3 | 14.5 | 0.00 | 0.00 | 0.00 | 96 | 1012.2 |
| 20260902085401 | 23 | 242 | 11.3 | 14.5 | 0.00 | 0.00 | 0.00 | 96 | 1012.2 |
| 20260902083900 | 23 | 245 | 11.3 | 12.9 | 0.00 | 0.00 | 0.00 | 97 | 1012.5 |
| 20260902082401 | 23 | 250 | 11.3 | 16.1 | 0.00 | 0.00 | 0.00 | 97 | 1012.2 |
| 20260902080901 | 23 | 239 | 12.9 | 16.1 | 0.00 | 0.00 | 0.00 | 99 | 1012.5 |
| 20260902075400 | 23 | 237 | 11.3 | 14.5 | 0.00 | 0.00 | 0.00 | 99 | 1012.5 |
| 20260902073900 | 23 | 223 | 8.0 | 14.5 | 0.00 | 0.00 | 0.00 | 97 | 1012.2 |
| 20260902072400 | 24 | 236 | 11.3 | 12.9 | 0.00 | 0.00 | 0.00 | 94 | 1012.2 |
| 20260902070900 | 24 | 229 | 8.0 | 9.7 | 0.00 | 0.00 | 0.00 | 91 | 1012.2 |
| 20260902065403 | 24 | 220 | 4.8 | 8.0 | 0.00 | 0.00 | 0.00 | 91 | 1012.9 |
| 20260902063900 | 25 | 221 | 3.2 | 4.8 | 0.00 | 0.00 | 0.00 | 91 | 1012.5 |
| 20260902060900 | 25 | 221 | 3.2 | 4.8 | 0.00 | 0.00 | 0.00 | 89 | 1013.1 |
| 20260902053901 | 25 | 223 | 3.2 | 4.8 | 0.00 | 0.00 | 0.00 | 89 | 1012.9 |
| 20260902052400 | 25 | 220 | 3.2 | 3.2 | 0.00 | 0.00 | 0.00 | 88 | 1012.5 |
| 20260902050900 | 25 | 228 | 4.8 | 4.8 | 0.00 | 0.00 | 0.00 | 87 | 1012.9 |
| 20260902043900 | 23 | 226 | 4.8 | 4.8 | 0.00 | 0.00 | 0.00 | 93 | 1012.9 |
| 20260902042401 | 24 | 224 | 4.8 | 4.8 | 0.00 | 0.00 | 0.00 | 93 | 1012.9 |
| 20260902040902 | 23 | 220 | 1.6 | 3.2 | 0.00 | 0.00 | 0.00 | 94 | 1012.5 |
| 20260902035400 | 23 | 215 | 1.6 | 1.6 | 0.00 | 0.00 | 0.00 | 95 | 1012.5 |
| 20260902033901 | 24 | 232 | 4.8 | 4.8 | 0.00 | 0.00 | 0.00 | 94 | 1012.5 |
| 20260902032401 | 24 | 232 | 3.2 | 4.8 | 0.00 | 0.00 | 0.00 | 94 | 1012.5 |
| 20260902030901 | 24 | 226 | 3.2 | 4.8 | 0.00 | 0.00 | 0.00 | 94 | 1012.5 |
| 20260902025401 | 24 | 238 | 4.8 | 8.0 | 0.00 | 0.00 | 0.00 | 94 | 1012.9 |
| 20260902023900 | 25 | 237 | 4.8 | 8.0 | 0.00 | 0.00 | 0.00 | 92 | 1012.2 |
| 20260902022402 | 24 | 243 | 4.8 | 9.7 | 0.00 | 0.00 | 0.00 | 92 | 1012.5 |
| 20260902020900 | 25 | 263 | 8.0 | 9.7 | 0.00 | 0.00 | 0.00 | 91 | 1012.2 |
| 20260902015400 | 25 | 265 | 8.0 | 11.3 | 0.00 | 0.00 | 0.00 | 89 | 1012.3 |
| 20260902013859 | 25 | 255 | 8.0 | 11.3 | 0.00 | 0.00 | 0.00 | 89 | 1012.2 |
| 20260902012400 | 25 | 256 | 4.8 | 11.3 | 0.00 | 0.00 | 0.00 | 88 | 1011.9 |
| 20260902010900 | 25 | 248 | 8.0 | 9.7 | 0.00 | 0.00 | 0.00 | 87 | 1011.5 |
| 20260902005401 | 26 | 242 | 4.8 | 8.0 | 0.00 | 0.00 | 0.00 | 88 | 1011.5 |
| 20260902003901 | 26 | 243 | 4.8 | 11.3 | 0.00 | 0.00 | 0.00 | 87 | 1011.5 |
| 20260902002400 | 26 | 227 | 3.2 | 9.7 | 0.00 | 0.00 | 0.00 | 88 | 1011.2 |
| 20260901235400 | 26 | 242 | 4.8 | 9.7 | 0.00 | 0.00 | 0.00 | 88 | 1011.5 |
| 20260901233900 | 26 | 237 | 8.0 | 11.3 | 0.00 | 0.00 | 0.00 | 90 | 1011.5 |
| 20260901232400 | 25 | 256 | 9.7 | 12.9 | 0.00 | 0.00 | 0.00 | 94 | 1011.9 |
| 20260901230900 | 25 | 247 | 12.9 | 16.1 | 0.00 | 0.00 | 0.00 | 94 | 1011.9 |
| 20260901225359 | 25 | 243 | 11.3 | 14.5 | 0.00 | 0.00 | 0.00 | 93 | 1011.9 |
| 20260901223859 | 26 | 243 | 11.3 | 20.9 | 0.00 | 0.00 | 0.00 | 92 | 1011.9 |
| 20260901222401 | 26 | 238 | 12.9 | 16.1 | 0.00 | 0.00 | 0.00 | 92 | 1011.9 |
| 20260901220901 | 26 | 248 | 16.1 | 20.9 | 0.00 | 0.00 | 0.00 | 93 | 1011.9 |
| 20260901215403 | 26 | 233 | 14.5 | 20.9 | 0.00 | 0.00 | 0.00 | 91 | 1011.9 |
| 20260901213900 | 26 | 242 | 12.9 | 16.1 | 0.00 | 0.00 | 0.00 | 91 | 1011.9 |
| 20260901212400 | 26 | 238 | 11.3 | 19.3 | 0.00 | 0.00 | 0.00 | 91 | 1012.0 |
| 20260901210859 | 26 | 227 | 9.7 | 16.1 | 0.00 | 0.00 | 0.00 | 91 | 1012.2 |
| 20260901205400 | 26 | 241 | 11.3 | 14.5 | 0.00 | 0.00 | 0.00 | 89 | 1011.9 |
| 20260901203900 | 27 | 240 | 16.1 | 19.3 | 0.00 | 0.00 | 0.00 | 86 | 1011.9 |
| 20260901202400 | 27 | 242 | 12.9 | 16.1 | 0.00 | 0.00 | 0.00 | 87 | 1012.2 |
| 20260901200900 | 26 | 238 | 11.3 | 19.3 | 0.00 | 0.00 | 0.00 | 90 | 1012.5 |
| 20260901195402 | 26 | 230 | 16.1 | 20.9 | 0.00 | 0.00 | 0.00 | 90 | 1012.2 |
| 20260901193901 | 27 | 247 | 12.9 | 19.3 | 0.00 | 0.00 | 0.00 | 89 | 1011.9 |
| 20260901192403 | 27 | 248 | 12.9 | 22.5 | 0.00 | 0.00 | 0.00 | 86 | 1012.2 |
| 20260901190901 | 27 | 242 | 14.5 | 22.5 | 0.00 | 0.00 | 0.00 | 87 | 1012.2 |
| 20260901185403 | 27 | 241 | 19.3 | 20.9 | 0.00 | 0.00 | 0.00 | 85 | 1012.2 |
| 20260901183901 | 27 | 208 | 11.3 | 16.1 | 0.00 | 0.00 | 0.00 | 88 | 1012.2 |
| 20260901182403 | 26 | 241 | 9.7 | 12.9 | 0.00 | 0.00 | 0.00 | 91 | 1011.9 |
| 20260901180901 | 27 | 230 | 9.7 | 14.5 | 0.00 | 0.00 | 0.00 | 90 | 1012.5 |
| 20260901173901 | 26 | 229 | 11.3 | 14.5 | 0.00 | 0.03 | 0.00 | 90 | 1012.3 |
| 20260901170901 | 26 | 227 | 12.9 | 16.1 | 0.00 | 0.03 | 0.00 | 89 | 1012.6 |
| 20260901165403 | 27 | 243 | 9.7 | 12.9 | 0.00 | 0.03 | 0.00 | 87 | 1012.9 |
| 20260901163902 | 26 | 240 | 11.3 | 14.5 | 0.00 | 0.03 | 0.00 | 89 | 1012.5 |
| 20260901162403 | 27 | 233 | 12.9 | 16.1 | 0.00 | 0.03 | 0.00 | 85 | 1012.9 |
| 20260901160901 | 27 | 243 | 11.3 | 14.5 | 0.00 | 0.03 | 0.00 | 88 | 1012.9 |
| 20260901150902 | 25 | 234 | 11.3 | 12.9 | 0.00 | 0.03 | 0.00 | 92 | 1013.2 |
| 20260901145402 | 25 | 244 | 11.3 | 14.5 | 0.00 | 0.03 | 0.00 | 95 | 1013.2 |
| 20260901143901 | 27 | 234 | 4.8 | 8.0 | 0.00 | 0.03 | 0.00 | 84 | 1012.9 |
| 20260901140901 | 27 | 229 | 3.2 | 4.8 | 0.00 | 0.03 | 0.00 | 87 | 1012.9 |
| 20260901135403 | 26 | 229 | 4.8 | 8.0 | 0.00 | 0.03 | 0.00 | 88 | 1012.5 |
| 20260901133902 | 26 | 224 | 3.2 | 8.0 | 0.00 | 0.03 | 0.00 | 88 | 1012.2 |
| 20260901125402 | 26 | 228 | 4.8 | 8.0 | 0.00 | 0.03 | 0.00 | 90 | 1012.9 |
| 20260901123901 | 25 | 238 | 4.8 | 8.0 | 0.00 | 0.03 | 0.00 | 92 | 1013.2 |
| 20260901122401 | 25 | 226 | 3.2 | 4.8 | 0.00 | 0.03 | 0.00 | 92 | 1012.9 |
| 20260901120901 | 25 | 234 | 3.2 | 8.0 | 0.00 | 0.03 | 0.00 | 92 | 1012.9 |
| 20260901115401 | 24 | 228 | 4.8 | 8.0 | 0.00 | 0.03 | 0.00 | 94 | 1012.9 |
| 20260901113901 | 23 | 225 | 3.2 | 4.8 | 0.00 | 0.03 | 0.00 | 95 | 1012.9 |
| 20260901112401 | 23 | 223 | 3.2 | 4.8 | 0.00 | 0.03 | 0.00 | 96 | 1012.9 |
| 20260901110901 | 23 | 218 | 3.2 | 3.2 | 0.00 | 0.03 | 0.00 | 96 | 1012.5 |
| 20260901105403 | 23 | 226 | 3.2 | 4.8 | 0.00 | 0.03 | 0.00 | 95 | 1012.5 |
| 20260901103900 | 23 | 225 | 4.8 | 4.8 | 0.00 | 0.03 | 0.00 | 94 | 1012.2 |